Вернуться в каталог

SJ 16-02

АктивенНаукаVLEO
NORAD 41634·PAYLOAD·🇨🇳 China

Запущен Jun 29, 2016 с Jiuquan Satellite Launch Center

Loading…

Ближайшие Пролёты (ближайшие 24 часа)

TLE

СвежийSource: Space-Track

Эпоха: Sep 14, 2026, 23:07 UTC

1 41634U 16043A   26257.96351194  .00000590  00000-0  58475-4 0  9999
2 41634  75.0017 109.0076 0007648 180.0014 180.1177 14.93747892554544

Отслеживайте SJ 16-02 в реальном времени с AllMySat

Download on the App Store